Precipitable_Water
1.29 1.27 1.20 1.16 1.12 1.12 1.06 0.97 0.91 0.92 0.90 0.89 0.88 0.83 0.76 0.77 0.80 0.83 0.83 0.87 0.90 0.90 0.89 0.86 0.84 0.82 0.80 0.77 0.73 0.69 0.65 0.61 0.59 0.58 0.58 0.60 0.62 0.65 0.67 0.70 0.72 0.74 0.76
1.31 1.33 1.27 1.20 1.16 1.12 1.10 0.99 0.93 0.92 0.93 0.93 0.90 0.88 0.83 0.79 0.78 0.79 0.82 0.85 0.88 0.88 0.89 0.87 0.85 0.83 0.80 0.77 0.74 0.68 0.64 0.63 0.61 0.62 0.63 0.67 0.70 0.72 0.75 0.77 0.78 0.78 0.77
1.31 1.29 1.31 1.27 1.23 1.16 1.13 1.06 1.00 0.98 0.93 0.95 0.91 0.91 0.88 0.84 0.81 0.80 0.81 0.84 0.86 0.86 0.85 0.84 0.86 0.84 0.81 0.79 0.76 0.74 0.70 0.69 0.70 0.73 0.74 0.74 0.74 0.73 0.73 0.76 0.76 0.77 0.78
1.32 1.28 1.28 1.29 1.28 1.20 1.12 1.07 1.00 0.94 0.92 0.90 0.88 0.89 0.89 0.88 0.86 0.84 0.82 0.82 0.83 0.84 0.84 0.84 0.85 0.84 0.82 0.80 0.79 0.78 0.78 0.79 0.79 0.77 0.74 0.73 0.73 0.74 0.78 0.78 0.80 0.81 0.81
1.32 1.28 1.29 1.30 1.27 1.19 1.08 1.05 1.03 1.00 0.93 0.94 0.91 0.89 0.88 0.87 0.87 0.87 0.84 0.83 0.82 0.80 0.79 0.80 0.80 0.80 0.81 0.81 0.80 0.81 0.81 0.80 0.79 0.77 0.77 0.78 0.77 0.78 0.79 0.80 0.82 0.85 0.87
1.35 1.28 1.32 1.29 1.26 1.16 1.09 1.03 1.06 1.07 1.00 0.95 0.93 0.89 0.89 0.89 0.91 0.87 0.86 0.87 0.84 0.81 0.81 0.79 0.78 0.76 0.78 0.79 0.78 0.80 0.80 0.79 0.77 0.78 0.80 0.79 0.79 0.80 0.84 0.87 0.91 0.95 0.98
1.41 1.32 1.32 1.29 1.27 1.15 1.09 1.04 1.07 1.06 1.03 1.04 0.92 0.90 0.90 0.93 0.91 0.88 0.89 0.86 0.83 0.80 0.80 0.79 0.77 0.77 0.77 0.78 0.77 0.78 0.77 0.77 0.77 0.80 0.81 0.79 0.84 0.89 0.91 0.95 1.00 1.02 1.12
1.41 1.38 1.33 1.27 1.28 1.21 1.16 1.08 1.04 1.05 1.06 1.06 0.91 0.86 0.76 0.84 0.88 0.88 0.88 0.84 0.82 0.83 0.80 0.79 0.77 0.75 0.76 0.77 0.77 0.76 0.77 0.76 0.78 0.80 0.79 0.84 0.89 0.92 0.96 1.01 1.03 1.14 1.20
1.45 1.42 1.37 1.34 1.30 1.27 1.16 1.10 1.07 1.05 0.96 1.02 1.02 0.89 0.77 0.68 0.76 0.84 0.82 0.82 0.80 0.79 0.79 0.79 0.76 0.75 0.75 0.77 0.78 0.79 0.76 0.71 0.72 0.73 0.80 0.88 0.92 0.97 1.03 1.07 1.15 1.18 1.13
1.43 1.46 1.41 1.37 1.33 1.30 1.20 1.13 1.15 1.09 1.03 0.94 1.02 1.02 0.93 0.82 0.65 0.59 0.75 0.78 0.81 0.79 0.77 0.77 0.76 0.76 0.76 0.75 0.73 0.76 0.74 0.70 0.70 0.75 0.85 0.91 0.97 1.05 1.08 1.12 1.11 1.08 1.09
1.47 1.47 1.42 1.39 1.37 1.33 1.26 1.19 1.17 1.14 1.11 1.02 0.96 0.91 0.87 0.81 0.76 0.66 0.59 0.68 0.78 0.80 0.79 0.77 0.76 0.75 0.75 0.74 0.71 0.73 0.74 0.75 0.79 0.85 0.90 0.96 1.03 1.08 1.12 1.08 1.06 1.11 1.09
1.41 1.50 1.44 1.40 1.41 1.36 1.30 1.23 1.22 1.20 1.13 1.08 1.04 1.00 0.95 0.87 0.80 0.74 0.67 0.66 0.65 0.71 0.75 0.77 0.74 0.71 0.71 0.70 0.76 0.79 0.81 0.84 0.86 0.90 0.95 1.02 1.07 1.13 1.13 1.10 1.12 1.12 1.11
1.39 1.43 1.45 1.41 1.40 1.40 1.36 1.31 1.24 1.21 1.17 1.10 1.07 1.03 1.02 0.95 0.89 0.80 0.73 0.69 0.68 0.74 0.75 0.78 0.76 0.77 0.78 0.80 0.81 0.84 0.84 0.87 0.90 0.93 0.99 1.07 1.14 1.16 1.14 1.14 1.15 1.13 1.11
1.40 1.41 1.44 1.45 1.39 1.39 1.39 1.33 1.25 1.21 1.19 1.13 1.06 1.04 1.01 0.98 0.95 0.89 0.82 0.77 0.71 0.76 0.81 0.77 0.83 0.80 0.77 0.78 0.81 0.82 0.86 0.90 0.93 0.97 1.05 1.13 1.15 1.13 1.16 1.16 1.14 1.13 1.09
1.43 1.40 1.42 1.40 1.41 1.36 1.38 1.33 1.23 1.19 1.16 1.12 1.07 1.06 1.03 1.00 0.97 0.94 0.89 0.84 0.74 0.63 0.64 0.72 0.66 0.71 0.70 0.76 0.82 0.87 0.88 0.93 0.99 1.06 1.10 1.12 1.14 1.16 1.16 1.16 1.11 1.09 1.04
1.47 1.41 1.36 1.38 1.34 1.36 1.36 1.28 1.23 1.21 1.15 1.12 1.10 1.07 1.04 0.98 0.93 0.91 0.86 0.81 0.76 0.67 0.56 0.66 0.63 0.68 0.76 0.77 0.85 0.90 0.95 1.00 1.06 1.12 1.15 1.16 1.16 1.15 1.14 1.11 1.06 1.02 0.93
1.46 1.43 1.36 1.35 1.30 1.30 1.35 1.24 1.21 1.18 1.14 1.10 1.09 1.04 0.99 0.95 0.91 0.89 0.86 0.80 0.77 0.74 0.62 0.65 0.68 0.71 0.71 0.77 0.88 0.99 1.05 1.07 1.11 1.12 1.12 1.14 1.14 1.12 1.12 1.07 1.00 0.95 0.91
1.43 1.38 1.40 1.34 1.26 1.28 1.31 1.24 1.18 1.16 1.11 1.07 1.06 1.02 0.95 0.96 0.92 0.88 0.85 0.80 0.77 0.76 0.69 0.60 0.68 0.72 0.76 0.86 0.91 0.94 1.01 1.06 1.08 1.10 1.12 1.11 1.11 1.11 1.08 1.03 0.97 0.91 0.86
1.34 1.39 1.36 1.31 1.25 1.26 1.29 1.25 1.21 1.17 1.14 1.11 1.06 0.98 0.95 0.94 0.88 0.89 0.85 0.83 0.86 0.92 0.87 0.80 0.74 0.84 0.91 0.97 0.98 1.02 1.04 1.06 1.10 1.12 1.10 1.09 1.08 1.08 1.01 0.96 0.91 0.89 0.86
1.37 1.40 1.33 1.32 1.26 1.26 1.28 1.27 1.24 1.22 1.17 1.13 1.09 1.02 0.99 0.94 0.91 0.90 0.89 0.89 0.91 0.91 0.90 0.86 0.84 0.87 0.96 1.04 1.07 1.03 1.01 1.07 1.06 1.10 1.06 1.08 1.04 1.01 0.96 0.94 0.90 0.87 0.80
1.34 1.35 1.34 1.30 1.30 1.26 1.29 1.29 1.26 1.24 1.18 1.13 1.10 1.07 1.04 1.02 1.02 1.01 0.96 0.93 0.94 0.96 0.96 0.88 0.85 0.88 0.92 0.95 0.96 1.04 1.01 1.01 1.00 1.02 0.98 0.99 1.00 0.95 0.89 0.84 0.85 0.79 0.71
1.40 1.37 1.32 1.28 1.27 1.25 1.30 1.34 1.29 1.25 1.19 1.12 1.08 1.08 1.07 1.07 1.09 1.08 1.07 1.06 1.05 1.02 0.95 0.91 0.89 0.88 0.91 0.96 1.02 1.01 0.99 0.93 0.88 1.00 0.94 0.90 0.93 0.88 0.83 0.80 0.80 0.68 0.61
1.29 1.31 1.32 1.29 1.24 1.24 1.29 1.34 1.30 1.27 1.18 1.15 1.11 1.08 1.07 1.11 1.14 1.14 1.14 1.15 1.15 1.16 1.11 1.03 0.95 0.95 0.96 1.01 1.03 0.98 0.98 0.93 0.88 0.91 0.91 0.84 0.85 0.80 0.79 0.74 0.70 0.61 0.55
1.31 1.30 1.34 1.30 1.25 1.25 1.29 1.33 1.33 1.28 1.19 1.16 1.13 1.12 1.08 1.08 1.14 1.15 1.13 1.13 1.14 1.16 1.13 1.10 1.10 1.07 1.07 1.07 1.08 1.03 0.99 0.93 0.91 0.86 0.86 0.75 0.79 0.71 0.66 0.63 0.58 0.54 0.48
1.30 1.34 1.34 1.29 1.24 1.26 1.31 1.32 1.33 1.31 1.20 1.15 1.16 1.13 1.12 1.13 1.16 1.21 1.13 1.10 1.07 1.11 1.13 1.11 1.08 1.08 1.08 1.05 1.04 0.98 0.89 0.85 0.79 0.78 0.79 0.73 0.66 0.58 0.53 0.50 0.49 0.47 0.42
1.33 1.39 1.35 1.33 1.31 1.29 1.32 1.30 1.31 1.29 1.19 1.14 1.14 1.13 1.15 1.18 1.18 1.23 1.13 1.11 1.05 1.05 1.07 1.01 1.00 1.04 1.02 0.97 0.96 0.92 0.89 0.80 0.78 0.73 0.72 0.62 0.55 0.48 0.43 0.45 0.44 0.40 0.37
Wind_Speed
31 29 28 27 26 26 24 22 21 20 19 17 16 15 14 13 13 12 11 11 10 9 8 7 6 6 6 6 7 8 9 10 11 12 13 14 15 16 17 18 18 18 18
34 32 31 29 28 28 26 24 23 22 20 19 18 17 16 15 14 14 13 12 12 11 10 9 9 9 9 9 10 10 11 12 13 14 15 16 17 17 18 19 19 19 19
37 35 33 32 31 30 29 27 25 24 22 21 20 19 17 17 16 16 15 14 13 13 12 12 12 12 12 12 12 13 13 14 15 16 16 17 18 19 19 20 20 20 20
41 38 36 34 33 32 31 29 28 26 24 23 22 20 19 18 18 17 17 16 16 15 15 14 14 14 14 15 15 16 16 17 17 18 18 19 19 20 20 21 20 20 21
44 41 38 36 36 34 33 31 29 28 26 25 24 22 21 21 20 19 19 18 18 18 18 17 17 17 17 17 18 18 18 19 19 19 20 20 20 20 21 21 21 21 21
47 44 41 39 38 36 34 33 32 29 28 27 25 24 24 23 22 22 21 21 20 20 20 20 20 20 20 20 20 20 20 20 20 20 20 20 20 21 20 20 21 22 23
51 47 44 42 40 37 36 35 33 31 29 28 26 25 25 25 25 24 24 23 23 23 22 22 22 22 22 22 22 22 22 22 22 21 21 21 21 20 20 21 22 23 25
53 50 47 44 42 39 38 37 35 32 30 30 27 25 24 25 26 27 26 25 25 24 24 24 24 24 24 23 23 23 23 23 22 22 22 21 21 21 21 22 23 25 24
56 53 51 47 45 42 40 38 37 35 31 31 29 25 23 24 24 26 28 27 26 25 25 25 25 25 25 25 24 24 23 23 23 23 22 22 22 21 22 24 24 25 27
60 57 53 50 47 44 42 39 38 36 34 32 30 29 25 22 23 22 25 27 27 27 27 26 26 26 26 25 25 25 24 24 23 23 22 22 22 22 24 24 26 28 28
62 59 55 52 50 46 43 41 39 37 36 34 32 30 28 25 23 22 22 24 27 28 27 26 26 26 26 25 25 24 24 24 23 23 22 22 22 24 25 26 28 28 29
63 60 56 54 51 48 45 43 40 39 36 34 33 32 30 27 26 24 23 22 23 23 26 26 25 26 25 25 24 24 24 24 23 23 22 23 23 25 26 28 29 30 31
66 64 60 56 52 50 47 44 42 39 38 36 34 33 32 30 28 26 25 23 23 22 22 23 24 25 25 25 25 24 24 24 23 23 23 23 25 26 29 29 30 31 31
67 65 61 56 54 51 48 46 43 40 39 37 35 34 33 32 31 29 27 25 23 23 23 23 22 24 25 25 25 25 25 24 24 23 24 25 27 28 29 30 31 31 32
68 65 60 57 54 51 49 47 44 42 40 38 36 35 33 32 31 30 28 26 25 23 23 23 23 23 23 24 24 24 24 24 24 24 25 27 28 29 30 31 32 33 33
67 64 61 58 55 52 49 48 45 42 40 38 36 35 34 32 31 30 28 27 26 24 23 23 22 22 21 23 23 24 23 24 24 25 27 29 30 30 31 31 32 33 35
67 64 62 58 55 53 50 48 45 42 40 38 37 36 34 33 31 30 29 27 27 25 25 25 24 24 23 22 23 23 24 24 26 28 29 30 30 31 32 32 34 35 36
65 62 59 57 55 53 51 48 45 43 41 39 37 35 34 33 31 30 29 28 28 27 26 25 25 26 25 25 25 25 26 27 28 29 30 30 31 32 32 34 35 36 39
64 60 59 57 55 53 50 48 46 43 41 40 37 36 35 33 32 30 29 29 28 27 27 26 26 26 26 26 26 26 27 28 29 30 30 30 31 32 33 35 37 37 38
63 59 58 56 54 52 50 48 46 43 42 40 38 37 36 34 33 31 30 30 29 28 27 27 27 28 28 27 27 28 29 30 30 31 32 32 33 34 36 37 36 38 38
61 57 57 54 53 51 49 48 46 44 42 40 38 37 36 35 34 33 31 30 29 29 28 29 28 28 28 28 29 30 31 32 33 33 33 35 35 35 36 36 37 38 40
58 57 57 53 53 50 49 49 46 44 42 40 39 38 37 36 35 34 33 32 32 30 30 29 29 29 30 30 30 31 32 33 33 34 35 35 35 36 36 36 37 37 39
55 54 54 52 51 48 48 48 47 44 42 41 39 38 37 36 36 34 33 32 32 31 32 31 31 30 30 31 32 32 33 34 34 34 32 34 33 35 35 36 36 37 38
55 53 52 51 49 47 48 47 46 44 42 41 40 39 38 37 36 35 34 33 33 33 33 32 32 32 31 32 33 33 32 31 31 31 33 32 33 36 35 33 34 37 39
51 50 51 48 47 47 47 46 46 44 43 42 41 39 38 37 36 36 35 34 32 31 29 28 28 29 29 30 30 31 30 30 31 32 33 33 34 33 32 34 36 39 42
46 48 49 48 47 46 46 46 45 44 43 42 40 40 39 38 37 37 36 35 33 32 30 30 28 29 28 28 29 29 30 30 31 32 33 31 31 31 33 36 38 41 44
Wind_Direction
221 220 219 217 216 214 214 213 213 212 211 212 212 212 211 211 211 212 214 217 220 226 231 237 246 257 270 283 294 301 307 310 313 316 318 322 324 326 327 328 329 329 329
222 222 221 219 218 216 217 216 215 214 215 216 216 216 216 216 217 218 221 224 229 233 238 245 253 262 271 280 289 296 301 305 308 310 313 316 318 320 321 322 323 324 324
222 222 222 222 220 218 217 217 217 217 219 219 219 220 221 221 222 224 227 230 234 239 244 251 257 264 271 278 284 290 296 300 303 306 309 311 313 315 317 318 318 319 319
223 223 223 223 220 219 218 218 218 220 222 221 221 223 225 226 227 229 232 235 239 243 248 254 260 265 271 276 281 286 291 296 299 302 304 307 309 310 313 314 316 317 318
223 223 223 223 221 220 219 218 219 221 223 223 224 226 229 231 232 234 237 240 243 247 251 256 261 266 270 275 279 284 288 292 296 298 300 303 305 307 309 311 312 315 316
223 222 223 223 221 221 220 219 219 222 224 225 227 229 232 234 236 238 241 244 247 250 254 258 262 266 270 274 278 281 286 290 293 295 297 300 302 305 308 309 311 312 313
222 222 222 222 221 221 221 220 221 221 224 225 228 233 236 237 239 241 243 246 250 253 256 259 263 266 270 273 277 280 283 286 289 291 293 297 300 303 305 307 310 311 312
221 222 222 221 221 220 221 221 221 222 225 224 230 232 237 241 242 242 244 248 252 254 257 260 263 266 269 272 276 279 281 283 285 288 291 294 297 300 302 306 309 311 312
221 222 222 221 220 221 222 222 221 222 225 226 228 233 238 241 243 244 246 249 252 255 258 260 263 266 268 271 274 277 279 281 283 286 288 291 294 297 301 306 308 310 311
222 220 219 220 220 221 222 222 222 224 225 226 229 232 236 240 243 249 249 250 252 255 258 261 263 265 267 269 272 276 277 279 281 283 285 289 291 296 301 304 307 308 309
219 218 219 219 219 220 221 222 222 224 226 227 229 232 236 240 244 248 252 254 255 256 259 261 263 264 266 268 271 274 276 278 280 281 283 286 290 295 300 303 306 307 308
215 216 218 217 218 220 220 221 222 224 226 228 230 233 236 239 243 247 252 256 258 259 258 260 262 263 265 267 270 273 274 276 279 280 282 285 290 295 299 303 304 305 307
215 215 216 216 218 219 220 220 222 224 225 228 230 233 236 239 243 247 251 255 258 259 261 261 262 263 265 266 269 271 273 276 277 279 282 285 290 294 298 302 303 305 308
214 213 214 215 218 217 218 219 222 224 226 228 230 234 237 240 242 246 250 253 256 260 262 262 265 265 265 266 267 270 271 275 275 277 280 285 290 294 298 301 302 304 306
210 210 213 213 214 216 218 219 221 224 226 228 231 234 237 239 242 245 248 251 253 257 261 264 265 267 265 265 266 269 271 273 275 277 282 286 290 294 297 299 302 303 305
209 210 209 211 214 215 216 218 221 223 225 228 231 233 236 239 241 243 247 249 250 254 258 260 264 265 268 265 266 270 272 274 276 279 284 287 290 292 296 298 301 303 305
207 208 208 211 213 213 216 217 220 222 224 227 230 232 235 237 239 242 244 247 249 253 256 261 262 263 267 268 269 271 272 274 278 282 286 288 290 292 296 298 300 300 305
205 206 210 211 213 214 215 216 219 221 224 226 229 231 232 235 238 240 243 245 249 252 256 258 262 263 264 267 270 271 273 276 280 283 286 287 289 291 295 298 301 302 303
205 206 208 211 211 211 214 216 219 221 223 226 228 229 231 233 237 239 242 245 248 253 257 259 261 263 265 267 269 272 275 279 281 284 286 287 290 292 293 298 299 302 305
201 204 207 209 210 212 214 216 218 220 223 225 227 229 231 234 237 239 243 245 248 253 257 260 260 261 264 267 269 272 277 280 283 284 287 286 289 293 294 297 298 302 304
202 206 207 208 209 211 213 215 217 220 222 225 227 230 232 235 237 240 243 246 248 253 258 259 261 261 263 267 270 274 278 281 284 284 286 287 288 292 294 294 298 299 302
203 204 205 207 208 211 214 215 217 219 223 226 228 231 233 235 238 242 245 247 250 254 257 259 261 263 264 267 271 274 278 282 283 283 286 287 286 289 293 293 295 298 302
199 202 204 207 208 213 214 214 217 220 224 227 229 231 234 237 239 242 245 248 251 256 258 259 261 262 266 269 273 276 279 281 282 285 285 288 287 291 291 293 293 298 301
204 204 206 206 210 214 213 215 217 221 225 227 230 233 236 238 240 242 245 248 252 256 258 260 262 264 268 272 274 277 278 280 281 285 287 287 289 291 291 291 294 298 303
203 205 206 208 211 214 215 216 218 221 225 228 231 234 237 239 241 242 246 247 251 255 258 256 261 264 269 273 274 277 279 277 284 283 288 289 292 292 290 293 295 300 305
207 209 207 211 214 215 216 217 220 223 226 229 232 235 237 240 241 242 245 246 247 250 253 258 260 265 270 274 277 278 277 281 282 284 288 288 291 292 293 295 297 302 306